Weather observations for the past three days for
Grand Canyon National Park Airport
Metric (Imperial)
Date Time (mst) Wind (kph) Vis. (km) Weather Sky Cond. Temperature (ºC) Relative Humidity Wind Chill (°C) Heat Index (°C) Pressure Precipitation (cm)
Air Dwpt 6 hour altimeter (cm) sea level (mb) 1 hr 3 hr 6 hr
Max. Min.
24 21:54 SW 24 16.09 Fair CLR 13.9 -5 27% 76.12 1005.7
24 20:54 SW 20 16.09 Fair CLR 15 -5.6 24% 76.1 1005.4
24 19:54 SW 26 G 41 16.09 Fair CLR 16.7 -5.6 21% 76.05 1004.9
24 18:54 SW 35 G 50 16.09 Fair and Breezy CLR 18.9 -6.1 18% 76.05 1005.8
24 17:54 SW 28 G 48 16.09 Fair CLR 20.6 -7.8 14% 76.02 1007.3
24 16:54 SW 39 G 54 16.09 Fair and Breezy CLR 21.1 -5 23.9 20.6 17% 76.07 1007.8
24 15:54 SW 30 G 57 16.09 Fair CLR 21.7 -5.6 16% 76.07 1007.8
24 14:54 SW 30 G 57 16.09 Fair CLR 22.2 -5 16% 76.12 1007.9
24 13:54 SW 33 G 65 16.09 Fair and Breezy CLR 23.3 -5 15% 76.15 1008.1
24 12:54 SW 31 G 44 16.09 Fair CLR 21.7 -3.3 19% 76.2 1008.6
24 11:54 SW 24 G 46 16.09 Fair CLR 22.2 -3.9 17% 76.23 1008.6
24 10:54 SW 24 G 43 16.09 Fair CLR 21.1 -2.8 21.1 0 20% 76.25 1008.8
24 09:54 S 19 G 41 16.09 Fair CLR 19.4 -2.2 23% 76.28 1008.9
24 08:54 SW 19 G 35 16.09 Fair CLR 17.8 -1.7 27% 76.3 1008.3
24 07:54 S 19 16.09 Fair CLR 16.1 -1.1 31% 76.3 1008.4
24 06:54 Calm 16.09 Fair CLR 10 -2.2 43% 76.33 1009.3
24 05:54 Calm 16.09 Fair CLR 1.7 -4.4 64% 76.3 1010.6
24 04:54 Calm 16.09 Partly Cloudy SCT085 0.6 -5 6.7 0.6 66% 76.28 1010.7
24 03:54 Calm 16.09 Fair CLR 0.6 -5.6 64% 76.28 1010.4
24 02:54 Calm 16.09 Fair CLR 1.7 -5 61% 76.3 1010.4
24 01:54 Calm 16.09 Fair CLR 1.7 -5.6 59% 76.3 1010.1
24 00:54 Calm 16.09 Fair CLR 3.9 -5 53% 76.33 1010.1
23 23:54 E 6 16.09 Fair CLR 5.6 -5 47% 76.33 1010.2
23 22:54 Calm 16.09 Fair CLR 6.1 -5 22.2 5.6 45% 76.33 1010.1
23 21:54 Calm 16.09 Fair CLR 8.9 -5 37% 76.3 1009.6
23 20:54 SW 13 16.09 Fair CLR 15 -4.4 26% 76.25 1007.7
23 19:54 W 11 16.09 Fair CLR 17.2 -5 22% 76.17 1006.8
23 18:54 SW 26 G 43 16.09 Fair CLR 19.4 -4.4 20% 76.12 1006.2
23 17:54 SW 30 G 50 16.09 A Few Clouds FEW100 21.1 -3.9 18% 76.07 1007.7
23 16:54 W 24 G 52 16.09 A Few Clouds FEW095 21.7 -3.3 23.3 20 19% 76.07 1007.7
23 15:54 SW 28 G 50 16.09 Partly Cloudy SCT095 22.8 -3.3 17% 76.07 1007.4
23 14:54 W 24 G 56 16.09 A Few Clouds FEW100 22.2 -4.4 17% 76.1 1007.5
23 13:54 W 37 G 61 16.09 A Few Clouds and Breezy FEW095 23.3 -3.3 17% 76.07 1007.1
23 12:54 W 26 G 48 16.09 Fair CLR 22.2 -3.3 18% 76.12 1007.6
23 11:54 W 24 G 46 16.09 Fair CLR 21.1 -3.3 19% 76.12 1007.5
23 10:54 SW 30 G 48 16.09 Fair CLR 20 -2.8 20 -1.7 21% 76.15 1007.2
23 09:54 SW 30 G 43 16.09 Fair CLR 18.9 -3.9 21% 76.17 1007.2
23 08:54 SW 35 G 46 16.09 Fair and Breezy CLR 16.7 -4.4 23% 76.2 1007.5
23 07:54 SW 20 16.09 Fair CLR 14.4 -3.9 28% 76.17 1007.1
23 06:54 SW 19 16.09 Fair CLR 11.7 -5 31% 76.17 1007.1
23 05:54 Calm 16.09 Fair CLR 1.1 -6.7 56% 76.17 1009.3
23 04:54 Calm 16.09 Fair CLR 0 -7.2 9.4 0 59% 76.17 1009.2
23 03:54 Calm 16.09 Fair CLR 0.6 -7.8 54% 76.2 1009.3
23 02:54 Calm 16.09 Fair CLR 1.7 -7.2 52% 76.23 1009.5
23 01:54 Calm 16.09 Fair CLR 2.2 -7.2 50% 76.23 1009.5
23 00:54 Calm 16.09 Fair CLR 3.3 -7.8 44% 76.25 1009.8
22 23:54 SW 7 16.09 Fair CLR 5 -7.8 39% 4 76.28 1009.7
22 22:54 SW 13 16.09 Fair CLR 9.4 -7.2 22.2 9.4 31% 8 76.28 1009.1
22 21:54 SW 15 16.09 Fair CLR 11.1 -8.9 24% 76.28 1008.9
22 20:54 W 9 16.09 Fair CLR 13.3 -9.4 20% 76.25 1008.4
22 19:54 W 13 16.09 Fair CLR 16.7 -9.4 16% 76.2 1007.4
22 18:54 W 30 G 48 16.09 Fair CLR 18.9 -8.3 15% 76.15 1007.0
22 17:54 W 19 G 48 16.09 Fair CLR 21.1 -8.3 13% 76.12 1008.2
22 16:54 W 19 G 56 16.09 Fair CLR 22.2 -8.3 23.3 18.3 12% 76.12 1008.3
22 15:54 W 30 G 48 16.09 Fair CLR 22.8 -8.3 12% 76.12 1008.2
22 14:54 SW 20 G 44 16.09 Fair CLR 22.8 -6.7 13% 76.2 1008.8
22 13:54 SW 30 G 52 16.09 Fair CLR 21.7 -7.2 14% 76.28 1008.6
22 12:54 W 15 G 44 16.09 Fair CLR 21.1 -6.1 16% 76.33 1010.1
22 11:54 SW 19 G 43 16.09 Fair CLR 20.6 -5.6 17% 76.35 1009.4
22 10:54 W 19 G 39 16.09 Fair CLR 18.9 -5.6 19.4 -0.6 19% 76.38 1010.5
22 09:54 SW 22 G 35 16.09 Fair CLR 18.3 -4.4 21% 76.38 1011.9
22 08:54 SW 15 16.09 Fair CLR 16.7 -5 22% 76.4 1011.8
22 07:54 S 15 16.09 Fair CLR 14.4 -4.4 27% 76.38 1011.0
22 06:54 SE 6 16.09 Fair CLR 10.6 -3.3 38% 76.35 1010.2
22 05:54 Calm 16.09 Fair CLR 2.2 -4.4 62% 76.38 1012.1
22 04:54 Calm 16.09 Fair CLR 0.6 -5 10.6 -0.6 66% 76.35 1012.3
22 03:54 Calm 16.09 Fair CLR 0.6 -5 66% 76.38 1012.3
22 02:54 Calm 16.09 Fair CLR 2.2 -4.4 62% 76.4 1012.4
22 01:54 E 7 16.09 Fair CLR 7.8 -3.9 44% 7 76.43 1011.3
22 00:54 Calm 16.09 Fair CLR 5 -3.9 53% 76.45 1012.8
21 23:54 E 13 16.09 Fair CLR 10 -3.9 38% 8 76.45 1011.8
21 22:54 NE 15 16.09 Fair CLR 10 -3.9 20 4.4 38% 8 76.48 1012.0
Date Time (mst) Wind (kph) Vis. (km) Weather Sky Cond. Air Dwpt Max. Min. Relative Humidity Wind Chill (°C) Heat Index (°C) altimeter (cm) sea level (mb) 1 hr 3 hr 6 hr
6 hour
Temperature (ºC) Pressure Precipitation (cm)